Location: ??????
(38.1303°N, 24.0039°E)
Time: 06:37:34
(UTC+00:00)

Meteor 2-15 Rocket - Pass Details

Date: 20 June 2021
Orbit: 939 x 956 km, 82.5° (Epoch: 30 July)

Event Time Altitude Azimuth Distance (km) Brightness Sun altitude
Rises 00:29:20 0° 350° (N) 3,639 8.3 -21.9°
Reaches altitude 10° 00:31:51 10° 349° (N) 2,688 7.4 -21.7°
Maximum altitude 00:37:59 75° 265° (W) 987 4.4 -21.0°
Enters shadow 00:40:42 35° 188° (S) 1,486 5.0 -20.7°
